Regional Weather Roundup
Issued by NWS

Home | Current Version | Previous Version | Text Only | Print | Product List | Glossary On
Versions: 1 2 3 4 5 6 7 8 9 10 11 12 13 14 15 16 17 18 19 20 21 22 23 24 25 26 27 28 29 30 31 32 33 34 35 36 37 38 39 40 41 42 43 44 45 46 47 48 49 50
000
ASUS43 KDMX 241306
RWRIA

WEATHER ROUNDUP FOR IOWA
NATIONAL WEATHER SERVICE DES MOINES IA
700 AM CST FRI NOV 24 2017

NOTE: "FAIR" INDICATES FEW OR NO CLOUDS BELOW 12,000 FEET WITH NO
SIGNIFICANT WEATHER AND/OR OBSTRUCTIONS TO VISIBILITY.

* - THESE STATIONS ARE NOT NWS STATIONS...THUS NOT UNDER NWS
QUALITY CONTROL.  THEY ALSO DO NOT REPORT WEATHER SUCH
AS PRECIPITATION OR FOG.

IAZ001>003-012>014-020>022-031>034-043>046-241400-
   NORTHWEST IOWA

CITY           SKY/WX    TMP DP  RH WIND       PRES   REMARKS
CARROLL *      CLEAR     50  39  66 SW20G25   29.49S
CHEROKEE *     CLEAR     40  38  93 S6        29.46F
DENISON *      CLEAR     45  39  81 S8        29.52S
LE MARS *      CLEAR     39  37  93 S3        29.45F
ORANGE CITY *  CLEAR     39  39 100 S7        29.44F WCI  34
SHELDON *      CLEAR     39  37  93 S5        29.43F
SIOUX CITY     CLEAR     34  33  96 SE7       29.48F WCI  28
SPENCER        CLEAR     40  35  83 SW9       29.46F WCI  34
STORM LAKE *   CLEAR     46  39  76 SW15G22   29.47F
$$

IAZ055>058-069>071-079>083-090>094-241400-
   SOUTHWEST IOWA

CITY           SKY/WX    TMP DP  RH WIND       PRES   REMARKS
ATLANTIC *     CLEAR     48  39  71 SW13      29.53F
AUDUBON *      CLEAR     48  39  71 S13       29.52F
CLARINDA *     CLEAR     48  37  66 S7          N/A
COUNCIL BLFS * CLEAR     50  41  71 SW14      29.53F
CRESTON *      CLEAR     46  37  71 S17       29.59F
HARLAN  *      CLEAR     45  39  81 S9        29.56S
LAMONI         CLEAR     46  35  65 S13       29.63F
RED OAK *      CLEAR     45  37  76 S8        29.57F
SHENANDOAH *   CLEAR     50  39  66 SW10      29.59S
$$

IAZ047>049-059>061-072>074-084-241400-
   CENTRAL IOWA

CITY           SKY/WX    TMP DP  RH WIND       PRES   REMARKS
AMES           CLEAR     42  37  82 S8        29.52F
ANKENY *       CLEAR     50  37  62 S10       29.55F
BOONE *        CLEAR     52  37  58 SW15G21   29.51F
CHARITON *     CLEAR     50  36  57 S16       29.61F
DES MOINES     PTCLDY    51  36  56 S17       29.55F
GRINNELL*      CLEAR     46  36  67 S14       29.59F
KNOXVILLE *    CLEAR     52  34  50 S18G25    29.58S
MARSHALLTOWN   CLEAR     46  36  68 S13G22    29.54F
NEWTON *       CLEAR     46  36  66 S12       29.58F
PELLA *        CLEAR     50  35  57 S7        29.61F
PERRY *          N/A     44  34  68 S9        29.52F
$$

IAZ004>006-015-016-023>025-035-036-241400-
   NORTH CENTRAL IOWA

CITY           SKY/WX    TMP DP  RH WIND       PRES   REMARKS
ALGONA *       CLEAR     41  39  93 S10       29.46F
CLARION *      CLEAR     41  39  93 S12       29.49F
ESTHERVILLE    CLEAR     36  35  96 S8        29.44F WCI  30
FORT DODGE *   CLEAR     44  37  76 S9        29.49F
MASON CITY     CLEAR     38  34  85 S13       29.49F WCI  30
FOREST CITY *    N/A     43  36  75 S9        29.47F
WEBSTER CITY * CLEAR     45  37  76 S10       29.48F
IOWA FALLS *     N/A     44  37  76 S10       29.53F
$$

IAZ007>011-017>019-026>030-037>042-050>054-066-241400-
   NORTHEAST IOWA

CITY           SKY/WX    TMP DP  RH WIND       PRES   REMARKS
CEDAR RAPIDS   CLEAR     42  34  73 S13       29.60F
CHARLES CITY * CLEAR     41  37  87 S13       29.52F
CLINTON *      CLEAR     37  32  82 SE13      29.68F WCI  29
DECORAH *      CLEAR     46  36  66 S10G17    29.52F
DUBUQUE        CLEAR     37  31  78 S12       29.61F WCI  29
MONTICELLO *     N/A     39  34  81 S10       29.61F WCI  32
OELWEIN *      CLEAR     39  37  93 S14       29.56F WCI  31
WATERLOO       CLEAR     42  34  73 SE7       29.55F
$$

IAZ064-065-067-068-078-241400-
   EAST CENTRAL IOWA

CITY           SKY/WX    TMP DP  RH WIND       PRES   REMARKS
DAVENPORT      CLEAR     43  33  68 S16       29.70F
IOWA CITY      CLEAR     39  32  76 S5        29.66F
MT. PLEASANT * CLEAR     41  32  71 S14       29.69F
MUSCATINE *    CLEAR     30  27  86 CALM      29.68F
QUAD CITIES    CLEAR     45  32  60 S9G18     29.68F
$$

IAZ062-063-075>077-085>089-095>099-241400-
   SOUTHEAST IOWA

CITY           SKY/WX    TMP DP  RH WIND       PRES   REMARKS
BURLINGTON     CLEAR     41  34  76 S10       29.71F
FAIRFIELD *    CLEAR     45  34  65 S10       29.65F
FORT MADISON * CLEAR     45  34  65 S12       29.71F
KEOKUK *       CLEAR     43  34  70 S14       29.71F
OSKALOOSA *      N/A     43  35  73 S10       29.62F
OTTUMWA        CLEAR     47  34  60 S15       29.63F
WASHINGTON *   CLEAR     45  36  70 S15G23    29.66F
$$

ABBREVIATIONS USED IN REMARKS
   TC - TEMPERATURES IN CELSIUS
  WCI - WIND CHILL INDEX
   HX - HEAT INDEX
  VSB - VISIBILITY
$$





USA.gov is the U.S. government's official web portal to all federal, state and local government web resources and services.